Regional Weather Roundup
Issued by NWS

Home | Current Version | Previous Version | Graphics & Text | Print | Product List | Glossary On
Versions: 1 2 3 4 5 6 7 8 9 10 11 12 13 14 15 16 17 18 19 20 21 22 23 24 25 26 27 28 29 30 31 32 33 34 35 36 37 38 39 40 41 42 43 44 45 46 47 48 49 50
354
ASUS45 KPSR 231010
RWRAZ

ARIZONA HOURLY REGIONAL WEATHER ROUNDUP
NATIONAL WEATHER SERVICE PHOENIX AZ
300 AM MST SUN JUL 23 2017

NOTE: FAIR INDICATES FEW OR NO CLOUDS BELOW 12,000 FEET WITH NO
SIGNIFICANT WEATHER AND/OR OBSTRUCTIONS TO VISIBILITY.

AZZ001>003-036-231100-
NORTHWEST ARIZONA

CITY           SKY/WX    TMP DP  RH WIND       PRES   REMARKS
KINGMAN        PTCLDY    72  64  76 SE7       29.97F
$$

AZZ004>008-015-016-018-231100-
NORTH CENTRAL ARIZONA

CITY           SKY/WX    TMP DP  RH WIND       PRES   REMARKS
GRAND CANYON   MOCLDY    66  53  63 NE3       30.22F
WILLIAMS       CLOUDY    63  57  82 SE6       30.22F
PRESCOTT       MOCLDY    67  61  81 SE8       30.11S
FLAGSTAFF      CLOUDY    61  55  81 CALM      30.26F
PAYSON         CLOUDY    68  63  83 VRB3      30.14F
PAGE           CLEAR     78  52  40 S6        30.03F
$$

AZZ009>014-017-231100-
NORTHEAST ARIZONA

CITY           SKY/WX    TMP DP  RH WIND       PRES   REMARKS
WINSLOW        PTCLDY    69  61  75 SW8       30.09F
SAINT JOHNS    PTCLDY    64  59  83 CALM      30.15F
WINDOW ROCK    PTCLDY    63  51  65 E5        30.25F
SHOW LOW       PTCLDY    59  55  88 SE5       30.20F
$$

AZZ540-542>544-546-548-231100-
GREATER PHOENIX AREA

CITY           SKY/WX    TMP DP  RH WIND       PRES   REMARKS
PHOENIX        MOCLDY    87  67  51 SE8       29.82R
BUCKEYE        CLOUDY    81  77  89 CALM      29.82S
LUKE AFB       PTCLDY    85  71  63 N3        29.81S
DEER VALLEY    MOCLDY    85  69  58 SE12      29.84R
SCOTTSDALE     MOCLDY    84  68  58 SE3       29.86S
MESA-GATEWAY   MOCLDY    82  68  61 SE8       29.86S
$$

AZZ539-553-231100-
SOUTHWEST MARICOPA COUNTY AND PINAL COUNTY

CITY           SKY/WX    TMP DP  RH WIND       PRES   REMARKS
CASA GRANDE    MOCLDY    83  69  62 E8        29.87S
GILA BEND      FAIR      88  64  45 SE3       29.79S
$$

AZZ503-504-507>509-231100-
SOUTHEAST ARIZONA

CITY           SKY/WX    TMP DP  RH WIND       PRES   REMARKS
TUCSON         CLOUDY    76  68  76 SE12      29.98S
DAVIS-MONTHAN  CLOUDY    74  74 100 E8        29.97S
NOGALES        CLOUDY    69  69 100 CALM      30.05F
SIERRA VISTA   CLOUDY    68  65  93 CALM      30.11S
DOUGLAS        CLOUDY    67  67 100 NW3       30.07F
SAFFORD        CLOUDY    74  68  81 SE6       29.98S
$$

AZZ532-231100-
SOUTHWEST ARIZONA

CITY           SKY/WX    TMP DP  RH WIND       PRES   REMARKS
YUMA           PTCLDY    88  70  55 SE12      29.73F
$$

CAZ041-043-047-048-061-525>527-560>570-231100-
SOUTHERN CALIFORNIA

CITY           SKY/WX    TMP DP  RH WIND       PRES   REMARKS
DOWNTOWN L.A.  CLEAR     69  61  75 CALM      29.86F
L.A. AIRPORT   PTCLDY    68  64  87 W5        29.87F
SAN DIEGO      MOCLDY    70  63  78 CALM      29.89S
BURBANK        CLEAR     69  61  75 E6        29.87F
ONTARIO        PTCLDY    69  63  81 SW5       29.88F
RIVERSIDE      CLEAR     69  64  84 W3        29.88F
PALM SPRINGS   CLEAR     90  59  35 NE5       29.78S
EL CENTRO NAS  CLEAR     84  69  60 E8        29.72S
IMPERIAL       CLEAR     87  72  60 SE10      29.69F
BLYTHE         MOCLDY    91  64  40 S12       29.75S
NEEDLES        PTCLDY    97  60  29 S6        29.75R
$$

NVZ020-UTZ003-231100-
SOUTHERN NEVADA-UTAH

CITY           SKY/WX    TMP DP  RH WIND       PRES   REMARKS
LAS VEGAS      CLEAR     92  55  28 SW7       29.83F
SALT LAKE CITY MOCLDY    73  49  42 SW5       30.04F
$$

NMZ009-TXZ055-231100-
NEW MEXICO-WEST TEXAS

CITY           SKY/WX    TMP DP  RH WIND       PRES   REMARKS
ALBUQUERQUE    PTCLDY    71  53  52 NE9       30.18F
EL PASO        MOCLDY    71  68  90 CALM      30.04F
$$


........................KEY........................
SKY/WX - SKY CONDITION/WEATHER
TMP    - TEMPERATURE IN FAHRENHEIT
DP     - DEW POINT IN FAHRENHEIT
RH     - RELATIVE HUMIDITY IN PERCENT
WIND   - DIRECTION AND SPEED IN MILES PER HOUR (MPH)
VRB    - VARIABLE WIND DIRECTION
PRES   - MEAN SEA LEVEL PRESSURE IN INCHES OF MERCURY
         F - FALLING PRESSURE   R - RISING PRESSURE
         S - STEADY PRESSURE
VSB    - VISIBILITY IN MILES
HX     - HEAT INDEX IN FAHRENHEIT
WCI    - WIND CHILL INDEX IN FAHRENHEIT
TC     - TEMPERATURE IN CELSIUS WHICH IS ALSO KNOWN AS
         TEMPERATURE IN CENTIGRADE
AFB    - AIR FORCE BASE
         LUKE AFB IS LUKE AIR FORCE BASE
         DAVIS-MONTHAN IS DAVIS-MONTHAN AIR FORCE BASE
NAS    - NAVAL AIR STATION
         EL CENTRO NAS IS EL CENTRO NAVAL AIR STATION
N/A    - NOT AVAILABLE





USA.gov is the U.S. government's official web portal to all federal, state and local government web resources and services.